CW7309 Weather Reports


time (UTC)temp
C
wind
direction
speed
KPH
gust
KPH
rain 1hr
cm
rain 24hr
cm
rain mn
cm
humidity
%
barometer
mb
20260506044942 10 191 0.0 0.0 0.00 2.77 0.10 90 1008.3
20260506044027 10 186 0.0 0.0 0.00 2.74 0.08 90 1008.3
20260506043615 10 192 0.0 0.0 0.10 2.74 0.08 90 1008.2
20260506043200 10 192 0.0 0.0 0.15 2.74 0.08 90 1008.2
20260506042247 10 183 0.0 0.0 0.15 2.72 0.08 90 1008.4
20260506041851 10 190 0.0 0.0 0.13 2.72 0.05 90 1008.4
20260506041435 10 186 0.0 1.6 0.13 2.69 0.05 90 1008.4
20260506041028 10 182 0.0 4.8 0.15 2.67 0.03 90 1008.6
20260506040613 10 198 0.0 4.8 0.25 2.67 0.03 90 1008.6
20260506040214 10 178 0.0 1.6 0.25 2.67 0.03 90 1008.5
20260506035820 10 194 0.0 1.6 0.51 2.67 2.67 90 1008.3
20260506034909 11 219 0.0 0.0 0.30 2.62 2.62 90 1008.0
20260506034507 11 205 0.0 0.0 0.53 2.59 2.62 90 1008.1
20260506034114 11 188 0.0 0.0 0.25 2.54 2.57 90 1008.1
20260506033701 10 182 0.0 0.0 0.30 2.54 2.57 90 1007.8
20260506033255 10 191 0.0 0.0 0.30 2.51 2.54 90 1007.9
20260506032858 10 184 0.0 0.0 0.25 2.49 2.51 90 1007.9
20260506032504 10 186 0.0 0.0 0.25 2.49 2.49 90 1008.0
20260506032050 10 187 0.0 0.0 0.25 2.46 2.49 90 1008.0
20260506031652 11 192 0.0 0.0 0.25 2.46 2.46 90 1007.9
20260506031253 11 191 0.0 0.0 0.38 2.44 2.44 90 1007.9
20260506030856 11 192 0.0 0.0 0.38 2.39 2.41 90 1008.0
20260506030459 11 196 0.0 0.0 0.46 2.36 2.39 90 1008.1
20260506030104 11 201 0.0 0.0 0.25 2.34 2.36 90 1008.2
20260506025654 11 199 0.0 0.0 0.33 2.34 2.36 90 1008.2
20260506025244 11 200 0.0 0.0 0.25 2.34 2.34 90 1008.2
20260506024843 11 186 0.0 0.0 0.38 2.31 2.31 90 1008.2
20260506024432 11 182 0.0 0.0 0.41 2.29 2.29 90 1008.4
20260506024019 11 183 0.0 0.0 0.43 2.26 2.26 90 1008.3
20260506023604 11 204 0.0 0.0 0.25 2.18 2.21 90 1008.3
20260506023204 11 202 0.0 0.0 0.25 2.18 2.21 90 1008.3
20260506022246 11 41 0.0 0.0 0.15 2.16 2.16 90 1008.1
20260506021845 11 41 0.0 0.0 0.25 2.16 2.16 90 1008.1
20260506021430 11 40 0.0 0.0 0.25 2.13 2.16 90 1008.0
20260506021015 11 40 0.0 0.0 0.15 2.13 2.13 90 1007.9
20260506015549 11 40 0.0 0.0 0.33 2.11 2.11 90 1007.6
20260506014630 11 40 0.0 0.0 0.15 2.03 2.06 90 1007.8
20260506013701 11 41 0.0 0.0 0.15 2.01 2.06 90 1007.6
20260506012749 11 40 0.0 0.0 0.00 1.98 2.01 90 1007.7
20260506012334 11 40 0.0 0.0 0.00 1.98 2.01 90 1007.6
20260506011923 11 41 0.0 0.0 0.00 1.98 2.01 90 1007.6
20260506011522 10 40 0.0 0.0 0.00 1.98 1.96 90 1007.7
20260506011106 10 42 0.0 0.0 0.00 1.98 1.96 90 1007.6
20260506010148 10 40 0.0 0.0 0.10 1.98 1.96 90 1007.4
20260506005738 10 41 0.0 0.0 0.13 1.98 1.96 90 1007.2
20260506005332 10 42 0.0 1.6 0.13 1.98 1.96 90 1007.1
20260506004916 10 226 0.0 0.0 0.13 1.98 1.96 90 1007.3
20260506003957 10 235 0.0 0.0 0.23 1.96 1.96 89 1007.6
20260506001431 10 25 0.0 0.0 0.25 1.83 1.85 89 1007.7
20260506001022 10 25 0.0 4.8 0.33 1.83 1.83 89 1007.6
20260506000615 10 26 0.0 4.8 0.86 1.80 1.83 89 1007.7
20260506000205 10 144 0.0 4.8 0.71 1.73 1.78 89 1008.3
20260505235806 10 210 0.0 4.8 0.81 1.70 1.73 89 1008.0
20260505234316 11 9 0.0 0.0 0.33 1.57 1.57 89 1007.8
20260505233919 10 37 0.0 0.0 0.38 1.55 1.57 89 1007.8
20260505233515 11 36 0.0 3.2 0.33 1.50 1.55 89 1007.6
20260505233101 11 37 0.0 3.2 0.97 1.50 1.52 89 1007.9
20260505232700 11 98 0.0 3.2 0.53 1.47 1.45 89 1008.0
20260505232305 11 202 0.0 3.2 0.71 1.45 1.40 89 1008.2
20260505231855 11 227 0.0 3.2 0.33 1.42 1.32 89 1008.1
20260505231455 11 190 0.0 1.6 1.40 1.45 1.32 88 1007.9
20260505231101 11 182 0.0 1.6 0.41 1.40 1.22 88 1008.0
20260505230706 11 180 0.0 1.6 0.43 1.35 1.19 88 1007.8
20260505230307 11 190 0.0 1.6 0.61 1.35 1.17 88 1007.9
20260505224318 11 170 0.0 3.2 0.81 1.09 0.91 88 1007.7
20260505223903 11 185 0.0 3.2 0.15 1.02 0.86 88 1007.6
20260505223458 11 198 0.0 3.2 0.13 0.99 0.84 88 1007.4
20260505222538 11 149 0.0 3.2 0.13 0.99 0.81 88 1007.6
20260505221608 11 171 0.0 4.8 0.64 0.99 0.81 87 1007.4
20260505221157 11 184 0.0 4.8 0.46 0.91 0.79 87 1007.4
20260505220759 11 171 0.0 4.8 0.51 0.86 0.71 87 1007.4
20260505220348 11 196 0.0 4.8 0.25 0.84 0.69 86 1007.6
20260505215945 11 215 0.0 3.2 0.38 0.84 0.66 86 1007.5
20260505215019 11 172 0.0 6.4 0.33 0.76 0.61 86 1007.3
20260505214606 11 186 1.6 11.3 0.10 0.71 0.58 86 1007.3
20260505214204 11 186 1.6 11.3 0.13 0.71 0.53 86 1007.4
20260505213241 11 75 1.6 11.3 0.15 0.71 0.53 86 1007.6
20260505211753 11 49 1.6 6.4 0.64 0.66 0.51 86 1007.5
20260505211343 11 53 1.6 9.7 0.89 0.58 0.46 86 1007.4
20260505210933 12 29 3.2 9.7 0.13 0.58 0.43 86 1007.3
20260505210533 12 29 1.6 11.3 0.15 0.58 0.41 86 1007.3
20260505210126 12 35 3.2 11.3 0.23 0.58 0.41 86 1007.3
20260505205725 12 36 3.2 16.1 0.23 0.53 0.38 86 1007.1
20260505205326 12 33 1.6 16.1 0.20 0.53 0.38 86 1006.9
20260505204912 12 30 1.6 16.1 0.25 0.51 0.33 86 1006.9
20260505204504 12 40 3.2 16.1 0.38 0.51 0.33 85 1007.0
20260505204106 13 38 3.2 16.1 0.30 0.48 0.33 86 1007.0
20260505203706 13 32 3.2 12.9 0.38 0.48 0.30 85 1007.0
20260505202211 13 268 1.6 8.0 0.51 0.33 0.20 85 1007.0
20260505201248 14 211 3.2 8.0 0.58 0.28 0.13 84 1006.8
20260505200845 14 213 1.6 8.0 0.10 0.25 0.08 84 1006.9
20260505195354 14 246 3.2 12.9 0.00 0.23 0.05 79 1006.8
20260505193917 15 233 3.2 17.7 0.00 0.20 0.03 76 1006.8
20260505193516 15 200 3.2 17.7 0.00 0.20 0.03 74 1006.6
20260505193115 16 222 3.2 17.7 0.00 0.20 0.03 73 1006.5
20260505192712 16 250 4.8 17.7 0.00 0.20 0.03 71 1006.6
20260505192316 16 232 4.8 17.7 0.00 0.20 0.03 69 1006.5
20260505191907 16 313 3.2 17.7 0.00 0.20 0.03 70 1006.5
20260505191458 16 256 4.8 17.7 0.00 0.20 0.03 68 1006.5
20260505191058 16 0 4.8 14.5 0.00 0.20 0.03 68 1006.6
20260505190152 17 221 3.2 17.7 0.00 0.20 0.03 71 1006.4
20260505185230 16 263 3.2 17.7 0.00 0.20 0.03 72 1006.5
20260505184830 16 236 3.2 17.7 0.00 0.20 0.03 72 1006.5
20260505184425 16 306 3.2 14.5 0.00 0.20 0.03 72 1006.6
20260505184010 16 214 3.2 14.5 0.00 0.20 0.03 72 1006.6
20260505183613 16 205 3.2 14.5 0.00 0.20 0.03 73 1006.5
20260505183216 17 216 3.2 9.7 0.00 0.20 0.03 72 1006.5
20260505182816 17 163 3.2 9.7 0.00 0.20 0.03 72 1006.6
20260505181846 17 284 3.2 9.7 0.00 0.20 0.03 72 1006.5
20260505181442 17 213 3.2 9.7 0.00 0.20 0.03 72 1006.4
20260505181049 17 227 3.2 9.7 0.00 0.20 0.03 72 1006.4
20260505180646 17 227 3.2 9.7 0.00 0.20 0.03 72 1006.4
20260505180245 17 237 3.2 9.7 0.00 0.20 0.03 73 1006.6
20260505175829 17 299 3.2 9.7 0.00 0.20 0.03 72 1006.6
20260505175417 17 19 3.2 14.5 0.00 0.20 0.03 73 1006.5
20260505175003 17 17 3.2 14.5 0.00 0.20 0.03 72 1006.4
20260505174558 17 16 3.2 16.1 0.00 0.20 0.03 73 1006.3
20260505174154 16 18 4.8 16.1 0.00 0.20 0.03 73 1006.3
20260505173740 16 17 4.8 16.1 0.00 0.20 0.03 73 1006.3
20260505173342 16 17 4.8 19.3 0.00 0.20 0.03 73 1006.2
20260505172932 16 14 4.8 19.3 0.00 0.20 0.03 72 1006.1
20260505172003 17 179 6.4 19.3 0.00 0.20 0.03 71 1006.1
20260505171604 17 261 6.4 17.7 0.00 0.20 0.03 70 1006.0
20260505171209 17 269 6.4 17.7 0.00 0.20 0.03 69 1006.0
20260505170753 17 0 6.4 17.7 0.00 0.20 0.03 68 1005.8
20260505170350 18 0 6.4 17.7 0.00 0.20 0.03 67 1005.8
20260505165941 18 86 6.4 17.7 0.00 0.20 0.03 67 1005.7
20260505165534 18 244 8.0 24.1 0.00 0.20 0.03 67 1005.6
20260505165120 18 232 6.4 24.1 0.00 0.20 0.03 66 1005.6
20260505164718 18 152 6.4 24.1 0.00 0.20 0.03 66 1005.7
20260505164316 18 220 8.0 24.1 0.00 0.20 0.03 64 1005.6
20260505163904 19 230 8.0 24.1 0.00 0.20 0.03 63 1005.4
20260505163451 19 327 8.0 22.5 0.00 0.20 0.03 63 1005.4
20260505163052 19 25 8.0 22.5 0.00 0.20 0.03 62 1005.3
20260505162636 20 279 6.4 22.5 0.00 0.20 0.03 62 1005.4
20260505162233 20 232 6.4 22.5 0.00 0.20 0.03 61 1005.1
20260505161831 20 0 6.4 22.5 0.00 0.20 0.03 61 1005.3
20260505160353 18 227 8.0 24.1 0.00 0.20 0.03 64 1005.3
20260505152057 18 288 6.4 25.7 0.00 0.20 0.03 61 1004.9
20260505151659 18 180 8.0 25.7 0.00 0.20 0.03 61 1005.1
20260505151300 18 221 6.4 20.9 0.00 0.20 0.03 61 1005.3
20260505150344 19 230 4.8 17.7 0.00 0.20 0.03 60 1005.2
20260505130200 20 226 4.8 14.5 0.00 0.20 0.03 58 1003.6
20260505124851 20 207 3.2 9.7 0.00 0.20 0.03 58 1003.2
20260505124451 20 180 3.2 9.7 0.00 0.20 0.03 57 1003.2
20260505124047 20 257 1.6 16.1 0.00 0.20 0.03 58 1003.1
20260505123651 20 238 1.6 16.1 0.00 0.20 0.03 57 1003.1
20260505123257 20 207 3.2 16.1 0.00 0.20 0.03 58 1003.0
20260505122848 20 153 1.6 16.1 0.00 0.20 0.03 58 1002.9
20260505122453 20 106 1.6 16.1 0.00 0.20 0.03 58 1002.9
20260505122038 20 225 1.6 12.9 0.00 0.20 0.03 57 1002.8
20260505121638 20 186 3.2 16.1 0.00 0.20 0.03 57 1002.6
20260505121239 20 244 3.2 16.1 0.00 0.20 0.03 56 1002.8
20260505120842 20 231 3.2 16.1 0.00 0.20 0.03 57 1002.9
20260505115912 20 221 1.6 16.1 0.00 0.20 0.03 58 1003.0
20260505115505 19 232 0.0 6.4 0.00 0.20 0.03 61 1003.1
20260505115107 19 251 1.6 6.4 0.00 0.20 0.03 61 1003.1
20260505114700 19 193 1.6 6.4 0.00 0.20 0.03 60 1003.1
20260505114302 19 213 1.6 6.4 0.00 0.20 0.03 60 1003.1
20260505113335 19 219 1.6 6.4 0.00 0.20 0.03 60 1002.9
20260505112927 20 220 1.6 6.4 0.00 0.20 0.03 60 1002.8
20260505112519 20 144 1.6 6.4 0.00 0.20 0.03 60 1002.7
20260505112121 20 262 1.6 6.4 0.00 0.20 0.03 60 1002.7
20260505111720 20 199 1.6 8.0 0.00 0.20 0.03 60 1002.7
20260505111304 20 223 1.6 8.0 0.00 0.20 0.03 60 1002.5
20260505110345 19 219 3.2 14.5 0.00 0.20 0.03 59 1002.3
20260505102010 19 218 0.0 3.2 0.00 0.20 0.03 61 1001.7
20260505101607 19 50 0.0 9.7 0.00 0.20 0.03 60 1001.6
20260505100647 19 221 0.0 12.9 0.00 0.20 0.03 60 1001.5
20260505100243 19 190 0.0 12.9 0.00 0.20 0.03 60 1001.4
20260505095842 19 140 0.0 12.9 0.00 0.20 0.03 59 1001.2
20260505095437 20 182 0.0 12.9 0.00 0.20 0.03 58 1001.2
20260505095041 20 232 1.6 8.0 0.00 0.20 0.03 58 1001.0
20260505094644 20 242 1.6 8.0 0.00 0.20 0.03 58 1001.0
20260505094248 20 271 1.6 8.0 0.00 0.20 0.03 58 1001.0
20260505093835 20 217 0.0 4.8 0.00 0.20 0.03 57 1001.1
20260505093419 20 146 1.6 14.5 0.00 0.20 0.03 57 1001.0
20260505093008 20 196 1.6 14.5 0.00 0.20 0.03 56 1000.9
20260505092554 20 118 3.2 20.9 0.00 0.20 0.03 57 1000.8
20260505091619 20 186 4.8 20.9 0.00 0.20 0.03 56 1000.6
20260505091208 20 223 3.2 20.9 0.00 0.20 0.03 56 1000.7
20260505090754 20 233 3.2 20.9 0.00 0.20 0.03 56 1000.8
20260505090357 20 265 3.2 16.1 0.00 0.20 0.03 56 1000.8
20260505085957 20 253 3.2 16.1 0.00 0.20 0.03 56 1000.7
20260505085548 20 190 3.2 14.5 0.00 0.20 0.03 55 1000.8
20260505085154 20 178 3.2 19.3 0.00 0.20 0.03 56 1000.7
20260505084750 20 238 1.6 19.3 0.00 0.20 0.03 55 1000.8
20260505084356 21 244 3.2 19.3 0.00 0.20 0.03 55 1000.9
20260505083940 21 232 3.2 19.3 0.00 0.20 0.03 55 1000.8
20260505082512 20 173 3.2 11.3 0.00 0.20 0.03 56 1000.6
20260505082059 20 202 3.2 9.7 0.00 0.20 0.03 58 1000.6
20260505081651 20 198 1.6 8.0 0.00 0.20 0.03 59 1000.6
20260505081249 19 68 1.6 8.0 0.00 0.20 0.03 61 1000.5
20260505080841 18 252 0.0 4.8 0.00 0.20 0.03 62 1000.6
20260505080436 18 244 0.0 3.2 0.00 0.20 0.03 63 1000.5
20260505080033 18 252 0.0 8.0 0.00 0.20 0.03 63 1000.5
20260505075619 18 215 1.6 8.0 0.00 0.20 0.03 64 1000.5
20260505075222 18 219 1.6 8.0 0.00 0.20 0.03 64 1000.5
20260505074810 18 223 1.6 8.0 0.00 0.20 0.03 64 1000.5
20260505074405 18 177 1.6 8.0 0.00 0.20 0.03 63 1000.5
20260505074012 18 173 1.6 8.0 0.00 0.20 0.03 64 1000.6
20260505073602 18 160 1.6 8.0 0.00 0.20 0.03 64 1000.5
20260505073146 18 175 1.6 8.0 0.00 0.20 0.03 64 1000.5
20260505072749 18 127 1.6 9.7 0.00 0.20 0.03 64 1000.5
20260505072351 18 132 1.6 9.7 0.00 0.20 0.03 64 1000.4
20260505071428 18 140 3.2 9.7 0.00 0.20 0.03 64 1000.5
20260505071014 18 160 3.2 9.7 0.00 0.20 0.03 64 1000.5
20260505070615 18 139 3.2 9.7 0.00 0.20 0.03 65 1000.6
20260505070220 18 150 1.6 9.7 0.00 0.20 0.03 65 1000.6
20260505064718 18 134 3.2 9.7 0.00 0.20 0.03 65 1000.7
20260505064303 18 130 3.2 9.7 0.00 0.20 0.03 66 1000.8
20260505063901 18 136 3.2 9.7 0.00 0.20 0.03 66 1000.8
20260505063450 18 132 3.2 9.7 0.00 0.20 0.03 66 1000.8
20260505063048 18 76 3.2 9.7 0.00 0.20 0.03 66 1000.8
20260505062638 18 107 3.2 8.0 0.00 0.20 0.03 66 1000.9
20260505062228 18 155 3.2 9.7 0.00 0.20 0.03 65 1000.9
20260505061825 18 236 1.6 9.7 0.00 0.20 0.03 66 1000.9
20260505061409 18 119 3.2 17.7 0.00 0.20 0.03 65 1001.0
20260505061012 18 330 3.2 17.7 0.00 0.20 0.03 65 1001.0
20260505060604 18 132 3.2 17.7 0.00 0.20 0.03 65 1001.0
20260505060147 18 128 3.2 17.7 0.00 0.15 0.00 65 1001.2
20260505055749 18 217 3.2 17.7 0.00 0.15 0.00 64 1001.1
20260505055354 18 104 1.6 9.7 0.00 0.15 0.00 64 1001.3
20260505054958 18 214 1.6 9.7 0.00 0.15 0.00 65 1001.4
20260505054600 18 129 1.6 9.7 0.00 0.15 0.00 64 1001.3
20260505054153 18 126 1.6 9.7 0.00 0.15 0.00 65 1001.5
20260505053739 18 117 3.2 9.7 0.00 0.15 0.00 65 1001.6
20260505053345 18 155 1.6 9.7 0.00 0.15 0.00 64 1001.8
20260505052929 19 150 3.2 8.0 0.00 0.15 0.00 62 1001.7
20260505052516 19 155 3.2 8.0 0.00 0.15 0.00 61 1001.8
20260505052111 19 144 3.2 8.0 0.00 0.15 0.00 61 1001.7
20260505051657 19 152 1.6 8.0 0.00 0.15 0.00 62 1001.7
20260505051244 19 225 1.6 8.0 0.00 0.15 0.00 61 1001.8
20260505050833 19 217 1.6 8.0 0.00 0.15 0.00 61 1001.8
20260505050419 19 136 1.6 8.0 0.00 0.15 0.00 61 1001.8